Location: Hamilton
(43.2500°N, 79.8330°W)
Time: 10:52:36
(UTC-04:00)

Amateur Radio Satellites - All Passes

Search period start: 27 August 2014 10:22
Search period end: 28 August 2014 10:22
Location: Hamilton, 43.2500°N, 79.8330°W

Satellite Date Start Highest point End Downlink Frequencies (MHz)
Time Altitude Azimuth
RS-15 27 Aug 11:01:24 11:11:52 47° 319° (NW) 11:22:20 29.354 - 29.394 USB, Beacon 29.352 USB
UKube-1 27 Aug 11:11:06 11:15:25 65° 287° (WNW) 11:19:42 145.840 MHz, 145.915 MHz
Oscar 11 27 Aug 11:21:15 11:25:38 78° 285° (WNW) 11:29:59 145.825 FM, Beacon 2401.500 USB
ISS 27 Aug 11:27:38 11:28:44 11° 130° (SE) 11:29:51 145.800 FM
KITSAT 1 27 Aug 11:29:02 11:35:43 30° 254° (WSW) 11:42:23 435.175 FM
FUNcube-1 27 Aug 11:36:09 11:40:36 61° 101° (E) 11:45:07 145.950 - 145.970 MHz USB
HO-68 27 Aug 11:43:42 11:50:13 40° 297° (WNW) 11:56:44 435.675 MHz FM
JAS-1B 27 Aug 12:25:16 12:30:11 16° 49° (NE) 12:34:51 435.800 - 435.900 CW/SSB
SO-50 27 Aug 12:34:53 12:38:27 21° 40° (NE) 12:42:04 436.795 FM
Oscar 16 27 Aug 12:43:54 12:47:27 19° 61° (ENE) 12:51:01 437.025 USB, Beacon 2401.1428
ISS 27 Aug 13:01:39 13:04:59 87° 146° (SSE) 13:08:20 145.800 FM
AO-27 27 Aug 13:02:57 13:05:14 13° 57° (ENE) 13:07:31 436.795 MHz FM
AO-Echo 27 Aug 13:08:07 13:10:45 15° 60° (ENE) 13:13:22 ?
FUNcube-1 27 Aug 13:13:58 13:16:32 15° 297° (WNW) 13:19:08 145.950 - 145.970 MHz USB
RS-15 27 Aug 13:19:29 13:27:54 24° 352° (N) 13:36:23 29.354 - 29.394 USB, Beacon 29.352 USB
Oscar 19 27 Aug 13:46:58 13:52:03 65° 73° (ENE) 13:57:12 437.125 CW, 437.150 USB
TMSAT-1 27 Aug 14:02:50 14:05:47 15° 59° (ENE) 14:08:45 436.925 FM
JAS-1B 27 Aug 14:09:31 14:19:04 58° 68° (ENE) 14:27:45 435.800 - 435.900 CW/SSB
ITAMSAT 1 27 Aug 14:11:01 14:15:58 49° 70° (ENE) 14:20:57 435.822 SSB
SO-50 27 Aug 14:14:43 14:19:30 71° 239° (WSW) 14:24:19 436.795 FM
Oscar 16 27 Aug 14:21:15 14:26:20 60° 259° (W) 14:31:28 437.025 USB, Beacon 2401.1428
Uribyol 2 27 Aug 14:21:48 14:26:53 66° 73° (ENE) 14:32:01 436.500 FM
AO-27 27 Aug 14:38:47 14:43:59 89° 75° (ENE) 14:49:12 436.795 MHz FM
ISS 27 Aug 14:39:15 14:42:04 24° 345° (NNW) 14:44:53 145.800 FM
AO-Echo 27 Aug 14:43:51 14:48:57 78° 257° (WSW) 14:53:55 ?
MaSat-1 27 Aug 14:45:10 14:50:01 74° 114° (ESE) 14:55:12 437.345 MHz
Gurwin Techsat 1B 27 Aug 14:46:02 14:51:05 47° 70° (ENE) 14:56:09 435.225 FM
UOSAT-12 27 Aug 14:55:07 14:59:23 32° 45° (NE) 15:03:35 437.025 FM, 437.400 FM
AO-7 27 Aug 15:02:25 15:09:00 27° 53° (NE) 15:15:34 29.400 - 29.500 MHz
Oscar 19 27 Aug 15:28:44 15:31:52 16° 270° (W) 15:35:01 437.125 CW, 437.150 USB
Uosat F 27 Aug 15:32:44 15:36:17 20° 62° (ENE) 15:39:51 435.120 FM
RS-15 27 Aug 15:35:25 15:44:56 32° 27° (NNE) 15:54:39 29.354 - 29.394 USB, Beacon 29.352 USB
TMSAT-1 27 Aug 15:39:44 15:45:02 80° 257° (WSW) 15:50:21 436.925 FM
ITAMSAT 1 27 Aug 15:51:50 15:55:44 21° 267° (W) 15:59:38 435.822 SSB
JAS-1B 27 Aug 16:00:39 16:09:41 40° 265° (W) 16:18:06 435.800 - 435.900 CW/SSB
Uribyol 2 27 Aug 16:03:45 16:06:50 16° 270° (W) 16:09:56 436.500 FM
ISS 27 Aug 16:17:04 16:19:36 20° 6° (N) 16:22:08 145.800 FM
AO-27 27 Aug 16:22:39 16:24:11 11° 272° (W) 16:25:44 436.795 MHz FM
MaSat-1 27 Aug 16:24:05 16:27:42 19° 314° (NW) 16:31:24 437.345 MHz
Gurwin Techsat 1B 27 Aug 16:27:05 16:31:16 23° 267° (W) 16:35:28 435.225 FM
UOSAT-12 27 Aug 16:35:14 16:39:35 37° 244° (WSW) 16:43:51 437.025 FM, 437.400 FM
OPAL 27 Aug 16:40:23 16:43:22 15° 92° (E) 16:46:19 ?
AO-7 27 Aug 16:52:37 17:00:59 79° 253° (WSW) 17:09:22 29.400 - 29.500 MHz
JAS-2 27 Aug 16:58:14 17:01:58 17° 61° (ENE) 17:05:29 435.800 - 435.900 CW/SSB, 435.910 FM
PCSat 27 Aug 16:58:40 17:01:04 13° 103° (ESE) 17:03:28 145.825 MHz
Uosat F 27 Aug 17:09:46 17:14:40 55° 259° (W) 17:19:36 435.120 FM
Hamsat 27 Aug 17:25:56 17:29:07 21° 66° (ENE) 17:32:20 145.90 MHz
RS-15 27 Aug 17:48:06 17:59:13 81° 55° (NE) 18:10:46 29.354 - 29.394 USB, Beacon 29.352 USB
ISS 27 Aug 17:53:44 17:56:58 43° 25° (NNE) 18:00:10 145.800 FM
Sapphire 27 Aug 18:08:40 18:13:51 50° 114° (ESE) 18:19:05 437.095 MHz 1200 baud AX-25 AFSK
OPAL 27 Aug 18:17:31 18:22:44 72° 289° (WNW) 18:27:55 ?
Oscar 10/S400 27 Aug 18:21:16 18:37:46 34° 147° (SSE) 19:06:28 145.825 - 145.975 CW/USB, Beacon 145.810 USB
PCSat 27 Aug 18:38:16 18:43:41 88° 300° (WNW) 18:49:09 145.825 MHz
JAS-2 27 Aug 18:40:10 18:46:34 79° 257° (WSW) 18:52:15 435.800 - 435.900 CW/SSB, 435.910 FM
AO-7 27 Aug 18:50:28 18:55:01 16° 272° (W) 18:59:36 29.400 - 29.500 MHz
Hamsat 27 Aug 19:00:47 19:04:49 39° 263° (W) 19:08:54 145.90 MHz
SO-67 27 Aug 19:09:15 19:12:24 33° 72° (ENE) 19:15:34 435.3500 MHz FM
ISS 27 Aug 19:30:40 19:33:37 29° 223° (SW) 19:36:33 145.800 FM
Sapphire 27 Aug 19:52:54 19:57:32 28° 313° (NW) 20:02:12 437.095 MHz 1200 baud AX-25 AFSK
STRAND 1 27 Aug 19:55:36 20:00:36 53° 100° (E) 20:05:34 ?
OPAL 27 Aug 19:59:15 20:00:42 11° 307° (NW) 20:02:09 ?
RS-15 27 Aug 20:01:35 20:10:26 29° 256° (WSW) 20:19:36 29.354 - 29.394 USB, Beacon 29.352 USB
PCSat 27 Aug 20:24:16 20:27:54 18° 321° (NW) 20:31:33 145.825 MHz
HO-68 27 Aug 20:25:42 20:32:06 37° 62° (ENE) 20:38:30 435.675 MHz FM
JAS-2 27 Aug 20:30:59 20:32:19 11° 272° (W) 20:33:37 435.800 - 435.900 CW/SSB, 435.910 FM
UKube-1 27 Aug 20:33:56 20:36:04 14° 61° (ENE) 20:38:12 145.840 MHz, 145.915 MHz
SO-67 27 Aug 20:43:37 20:45:34 14° 268° (W) 20:47:32 435.3500 MHz FM
Oscar 11 27 Aug 20:45:15 20:45:53 10° 59° (ENE) 20:46:30 145.825 FM, Beacon 2401.500 USB
AO-40 27 Aug 21:31:09 03:05:10 37° 183° (S) 08:52:46 Beacon 2401.320
STRAND 1 27 Aug 21:35:40 21:39:24 21° 298° (WNW) 21:43:08 ?
UKube-1 27 Aug 22:07:25 22:11:44 66° 258° (WSW) 22:16:05 145.840 MHz, 145.915 MHz
HO-68 27 Aug 22:12:50 22:19:38 46° 260° (W) 22:26:29 435.675 MHz FM
Oscar 11 27 Aug 22:17:02 22:21:21 87° 255° (WSW) 22:25:45 145.825 FM, Beacon 2401.500 USB
FUNcube-1 27 Aug 22:33:48 22:37:51 53° 73° (ENE) 22:41:59 145.950 - 145.970 MHz USB
MaSat-1 27 Aug 23:02:36 23:06:32 25° 49° (NE) 23:10:06 437.345 MHz
Saudisat 1A 27 Aug 23:23:14 23:26:47 24° 113° (ESE) 23:30:22 436.775 MHz
KITSAT 1 28 Aug 00:02:33 00:09:51 39° 109° (ESE) 00:17:09 435.175 FM
FUNcube-1 28 Aug 00:12:33 00:14:37 13° 270° (W) 00:16:42 145.950 - 145.970 MHz USB
MaSat-1 28 Aug 00:39:26 00:43:48 40° 252° (WSW) 00:47:37 437.345 MHz
Saudisat 1A 28 Aug 01:02:00 01:06:10 40° 311° (NW) 01:10:22 436.775 MHz
Sapphire 28 Aug 01:14:01 01:16:02 12° 32° (NNE) 01:18:03 437.095 MHz 1200 baud AX-25 AFSK
PCSat 28 Aug 01:42:49 01:46:33 18° 40° (NE) 01:50:17 145.825 MHz
KITSAT 1 28 Aug 01:57:08 02:05:01 54° 310° (NW) 02:12:56 435.175 FM
Oscar 19 28 Aug 01:58:20 02:02:16 21° 93° (E) 02:06:10 437.125 CW, 437.150 USB
ITAMSAT 1 28 Aug 02:24:04 02:27:12 16° 91° (E) 02:30:19 435.822 SSB
Oscar 16 28 Aug 02:31:55 02:36:54 45° 99° (E) 02:41:51 437.025 USB, Beacon 2401.1428
Uribyol 2 28 Aug 02:34:15 02:38:10 21° 93° (E) 02:42:05 436.500 FM
AO-Echo 28 Aug 02:50:30 02:54:36 29° 96° (E) 02:58:41 ?
AO-27 28 Aug 02:51:13 02:55:43 29° 96° (E) 03:00:11 436.795 MHz FM
Sapphire 28 Aug 02:55:29 03:00:48 51° 54° (NE) 03:06:04 437.095 MHz 1200 baud AX-25 AFSK
Gurwin Techsat 1B 28 Aug 03:02:14 03:05:39 17° 90° (E) 03:09:04 435.225 FM
PCSat 28 Aug 03:25:16 03:30:44 89° 241° (WSW) 03:36:09 145.825 MHz
Oscar 19 28 Aug 03:36:51 03:41:53 50° 290° (WNW) 03:46:52 437.125 CW, 437.150 USB
JAS-1B 28 Aug 03:46:24 03:53:30 73° 102° (ESE) 03:59:30 435.800 - 435.900 CW/SSB
TMSAT-1 28 Aug 03:54:45 03:59:40 38° 97° (E) 04:04:34 436.925 FM
OPAL 28 Aug 03:55:39 04:00:02 31° 64° (ENE) 04:04:30 ?
KITSAT 1 28 Aug 03:57:01 04:02:29 19° 335° (NNW) 04:07:58 435.175 FM
ITAMSAT 1 28 Aug 04:02:01 04:07:09 66° 287° (WNW) 04:12:17 435.822 SSB
Oscar 16 28 Aug 04:11:49 04:16:00 25° 296° (WNW) 04:20:09 437.025 USB, Beacon 2401.1428
Uribyol 2 28 Aug 04:12:55 04:17:55 50° 290° (WNW) 04:22:54 436.500 FM
AO-Echo 28 Aug 04:29:16 04:33:21 30° 293° (WNW) 04:37:25 ?
AO-27 28 Aug 04:30:33 04:35:16 37° 293° (WNW) 04:39:59 436.795 MHz FM
SO-50 28 Aug 04:31:14 04:35:05 29° 114° (ESE) 04:39:01 436.795 FM
Sapphire 28 Aug 04:39:34 04:43:53 25° 252° (WSW) 04:48:11 437.095 MHz 1200 baud AX-25 AFSK
Gurwin Techsat 1B 28 Aug 04:40:49 04:46:04 64° 288° (WNW) 04:51:18 435.225 FM
AO-7 28 Aug 04:53:30 05:00:51 34° 96° (E) 05:08:06 29.400 - 29.500 MHz
PCSat 28 Aug 05:11:10 05:13:19 12° 258° (WSW) 05:15:28 145.825 MHz
Uosat F 28 Aug 05:16:25 05:21:09 41° 99° (E) 05:25:51 435.120 FM
OPAL 28 Aug 05:34:15 05:38:50 35° 261° (W) 05:43:30 ?
TMSAT-1 28 Aug 05:34:55 05:39:28 30° 294° (WNW) 05:43:59 436.925 FM
STRAND 1 28 Aug 05:37:20 05:39:16 12° 57° (ENE) 05:41:12 ?
JAS-1B 28 Aug 05:38:08 05:43:12 21° 306° (NW) 05:47:45 435.800 - 435.900 CW/SSB
KITSAT 1 28 Aug 05:57:58 06:01:49 14° 6° (N) 06:05:40 435.175 FM
SO-50 28 Aug 06:11:23 06:15:32 36° 313° (NW) 06:19:47 436.795 FM
Hamsat 28 Aug 06:45:26 06:49:24 34° 96° (E) 06:53:20 145.90 MHz
AO-7 28 Aug 06:45:54 06:53:58 58° 295° (WNW) 07:01:59 29.400 - 29.500 MHz
UOSAT-12 28 Aug 06:46:50 06:51:18 52° 119° (ESE) 06:55:52 437.025 FM, 437.400 FM
Uosat F 28 Aug 06:55:40 06:59:43 25° 296° (WNW) 07:03:45 435.120 FM
STRAND 1 28 Aug 07:12:33 07:17:40 85° 75° (ENE) 07:22:47 ?
JAS-2 28 Aug 07:32:39 07:37:52 83° 104° (ESE) 07:43:23 435.800 - 435.900 CW/SSB, 435.910 FM
Saudisat 1A 28 Aug 07:48:18 07:52:12 30° 45° (NE) 07:56:05 436.775 MHz
KITSAT 1 28 Aug 07:53:51 08:00:35 28° 36° (NE) 08:07:16 435.175 FM
SO-67 28 Aug 08:04:46 08:07:59 34° 97° (E) 08:11:09 435.3500 MHz FM
RS-15 28 Aug 08:13:05 08:23:23 46° 110° (ESE) 08:33:30 29.354 - 29.394 USB, Beacon 29.352 USB
Hamsat 28 Aug 08:21:43 08:25:12 24° 293° (WNW) 08:28:38 145.90 MHz
UOSAT-12 28 Aug 08:27:56 08:31:44 24° 318° (NW) 08:35:37 437.025 FM, 437.400 FM
AO-7 28 Aug 08:41:00 08:45:01 15° 317° (NW) 08:49:02 29.400 - 29.500 MHz
STRAND 1 28 Aug 08:55:46 08:57:30 12° 272° (W) 08:59:14 ?
JAS-2 28 Aug 09:19:54 09:22:22 14° 301° (WNW) 09:24:53 435.800 - 435.900 CW/SSB, 435.910 FM
Saudisat 1A 28 Aug 09:27:48 09:31:49 35° 244° (WSW) 09:35:49 436.775 MHz
SO-67 28 Aug 09:38:46 09:40:44 15° 294° (WNW) 09:42:43 435.3500 MHz FM
HO-68 28 Aug 09:39:13 09:45:34 33° 96° (E) 09:51:52 435.675 MHz FM
KITSAT 1 28 Aug 09:48:56 09:57:04 90° 238° (WSW) 10:05:09 435.175 FM
UKube-1 28 Aug 09:55:30 09:58:38 19° 93° (E) 10:01:44 145.840 MHz, 145.915 MHz
Oscar 11 28 Aug 10:04:53 10:07:36 16° 91° (E) 10:10:19 145.825 FM, Beacon 2401.500 USB
